Regional Weather Roundup
Issued by NWS

Home | Current Version | Previous Version | Text Only | Print | Product List | Glossary Off
Versions: 1 2 3 4 5 6 7 8 9 10 11 12 13 14 15 16 17 18 19 20 21 22 23 24 25 26 27 28 29 30 31 32 33 34 35 36 37 38 39 40 41 42 43 44 45 46 47 48 49 50

000
ASUS43 KFSD 261610
RWRSD

WEATHER ROUNDUP FOR SOUTH DAKOTA
NATIONAL WEATHER SERVICE SIOUX FALLS SD
1100 AM CDT THU MAR 26 2015

NOTE: "FAIR" INDICATES FEW OR NO CLOUDS BELOW 12,000 FEET WITH NO
SIGNIFICANT WEATHER AND/OR OBSTRUCTIONS TO VISIBILITY.


SDZ001>005-009-010-012>017-261700-
NORTHWEST AND NORTH CENTRAL SOUTH DAKOTA

CITY           SKY/WX    TMP DP  RH WIND       PRES   REMARKS
BUFFALO          N/A     37  30  75 NE14      30.05R
FAITH            N/A     30  27  88 E7        30.12R WCI  23
MOBRIDGE       LGT SNOW  32  26  78 CALM      30.16S
$$

SDZ012>016-024>037-041>051-057-063-072>074-261700-
SOUTHWEST AND SOUTH CENTRAL SOUTH DAKOTA

CITY           SKY/WX    TMP DP  RH WIND       PRES   REMARKS
RAPID CTY ARPT CLOUDY    50  27  40 NW26G38   30.06R
PIERRE         HVY SNOW  28  26  92 E10       30.15R VSB 1/4 WCI  19
CUSTER         CLOUDY    39  25  57 NW15G26   30.07R
ELLSWORTH AFB  CLOUDY    50  28  43 NW23G36   30.05R
PHILIP         CLOUDY    35  23  61 E9        30.09S WCI  28
PINE RIDGE     CLOUDY    47  29  49 NW18      30.10S
SPEARFISH      CLOUDY    43  27  52 NW20G25   30.10R
WINNER         CLOUDY    37  23  56 E12       30.13S
$$

SDZ004>011-016>023-039-040-261700-
NORTHEAST SOUTH DAKOTA

CITY           SKY/WX    TMP DP  RH WIND       PRES   REMARKS
ABERDEEN       CLOUDY    32  24  72 NE10      30.22R WCI  24
WATERTOWN      CLOUDY    31  21  66 N9        30.17S WCI  23
SISSETON         N/A     28  22  78 NE17      30.22R WCI  16
$$

SDZ017-020-022-023-036>040-048>070-261700-
SOUTHEAST SOUTH DAKOTA

CITY           SKY/WX    TMP DP  RH WIND       PRES   REMARKS
SIOUX FALLS    CLOUDY    37  24  59 NW9       30.18F
HURON          CLOUDY    32  23  69 N6        30.20S WCI  26
CHAMBERLAIN    CLOUDY    33  23  67 E3        30.17S
MITCHELL       CLOUDY    33  23  66 VRB3      30.21S
YANKTON        PTSUNNY   36  21  55 W3        30.22S
$$

ABBREVIATIONS USED IN REMARKS
   TC - TEMPERATURE IN CELSIUS
  WCI - WIND CHILL INDEX
   HX - HEAT INDEX
  VSB - VISIBILITY



USA.gov is the U.S. government's official web portal to all federal, state and local government web resources and services.